| time (UTC) | temp F | wind direction | speed MPH | gust MPH | rain 1hr in | rain 24hr in | rain mn in | humidity % | barometer mb |
| 20260510185545 | 59 | 212 | 0.0 | 4.0 | 0.00 | 0.00 | 0.00 | 1 | 1020.3 |
| 20260510185043 | 59 | 240 | 0.0 | 4.0 | 0.00 | 0.00 | 0.00 | 1 | 1020.3 |
| 20260510184545 | 58 | 252 | 0.0 | 3.0 | 0.00 | 0.00 | 0.00 | 1 | 1020.2 |
| 20260510184042 | 58 | 217 | 0.0 | 3.0 | 0.00 | 0.00 | 0.00 | 1 | 1020.1 |
| 20260510183539 | 57 | 263 | 0.0 | 3.0 | 0.00 | 0.00 | 0.00 | 1 | 1020.0 |
| 20260510183037 | 58 | 62 | 0.0 | 3.0 | 0.00 | 0.00 | 0.00 | 1 | 1020.0 |
| 20260510182535 | 58 | 259 | 0.0 | 2.0 | 0.00 | 0.00 | 0.00 | 1 | 1019.8 |
| 20260510182034 | 58 | 250 | 0.0 | 2.0 | 0.00 | 0.00 | 0.00 | 1 | 1019.8 |
| 20260510181532 | 57 | 247 | 0.0 | 4.0 | 0.00 | 0.00 | 0.00 | 1 | 1019.7 |
| 20260510181031 | 57 | 273 | 0.0 | 4.0 | 0.00 | 0.00 | 0.00 | 1 | 1019.6 |
| 20260510180530 | 58 | 233 | 0.0 | 3.0 | 0.00 | 0.00 | 0.00 | 1 | 1019.5 |
| 20260510180029 | 58 | 267 | 0.0 | 1.0 | 0.00 | 0.00 | 0.00 | 1 | 1019.5 |
| 20260510175527 | 58 | 248 | 0.0 | 2.0 | 0.00 | 0.00 | 0.00 | 1 | 1019.5 |
| 20260510175024 | 58 | 284 | 0.0 | 2.0 | 0.00 | 0.00 | 0.00 | 1 | 1019.5 |
| 20260510174506 | 59 | 238 | 0.0 | 2.0 | 0.00 | 0.00 | 0.00 | 1 | 1019.6 |
| 20260510174006 | 59 | 249 | 0.0 | 1.0 | 0.00 | 0.00 | 0.00 | 1 | 1019.5 |
| 20260510173505 | 59 | 218 | 0.0 | 2.0 | 0.00 | 0.00 | 0.00 | 1 | 1019.3 |
| 20260510173005 | 58 | 252 | 0.0 | 2.0 | 0.00 | 0.00 | 0.00 | 1 | 1019.2 |
| 20260510172504 | 58 | 232 | 0.0 | 3.0 | 0.00 | 0.00 | 0.00 | 1 | 1019.3 |
| 20260510172003 | 58 | 225 | 0.0 | 4.0 | 0.00 | 0.00 | 0.00 | 1 | 1019.3 |
| 20260510171609 | 58 | 233 | 2.0 | 4.0 | 0.00 | 0.00 | 0.00 | 1 | 1019.4 |
| 20260510171046 | 58 | 243 | 0.0 | 1.0 | 0.00 | 0.00 | 0.00 | 1 | 1019.4 |
| 20260510170541 | 58 | 219 | 0.0 | 3.0 | 0.00 | 0.00 | 0.00 | 1 | 1019.3 |
| 20260510170045 | 59 | 250 | 1.0 | 4.0 | 0.00 | 0.00 | 0.00 | 1 | 1019.3 |
| 20260510165541 | 60 | 224 | 1.0 | 3.0 | 0.00 | 0.00 | 0.00 | 1 | 1019.3 |
| 20260510165045 | 60 | 273 | 0.0 | 3.0 | 0.00 | 0.00 | 0.00 | 1 | 1019.3 |
| 20260510164549 | 60 | 276 | 0.0 | 3.0 | 0.00 | 0.00 | 0.00 | 1 | 1019.1 |
| 20260510164029 | 61 | 225 | 2.0 | 3.0 | 0.00 | 0.00 | 0.00 | 1 | 1019.0 |
| 20260510163528 | 59 | 240 | 0.0 | 4.0 | 0.00 | 0.00 | 0.00 | 1 | 1019.0 |
| 20260510163029 | 59 | 229 | 1.0 | 4.0 | 0.00 | 0.00 | 0.00 | 1 | 1019.0 |
| 20260510162529 | 58 | 262 | 0.0 | 2.0 | 0.00 | 0.00 | 0.00 | 1 | 1019.0 |
| 20260510162028 | 58 | 228 | 0.0 | 4.0 | 0.00 | 0.00 | 0.00 | 1 | 1019.0 |
| 20260510161528 | 58 | 231 | 1.0 | 4.0 | 0.00 | 0.00 | 0.00 | 1 | 1019.0 |
| 20260510161027 | 58 | 235 | 0.0 | 2.0 | 0.00 | 0.00 | 0.00 | 1 | 1018.8 |
| 20260510160526 | 58 | 245 | 0.0 | 3.0 | 0.00 | 0.00 | 0.00 | 1 | 1018.7 |
| 20260510160024 | 58 | 228 | 0.0 | 2.0 | 0.00 | 0.00 | 0.00 | 1 | 1018.6 |
| 20260510155534 | 57 | 243 | 0.0 | 2.0 | 0.00 | 0.00 | 0.00 | 1 | 1018.5 |
| 20260510155021 | 57 | 245 | 0.0 | 2.0 | 0.00 | 0.00 | 0.00 | 1 | 1018.4 |
| 20260510154520 | 57 | 90 | 0.0 | 2.0 | 0.00 | 0.00 | 0.00 | 1 | 1018.1 |
| 20260510154019 | 57 | 231 | 0.0 | 1.0 | 0.00 | 0.00 | 0.00 | 1 | 1018.1 |
| 20260510153521 | 57 | 282 | 0.0 | 1.0 | 0.00 | 0.00 | 0.00 | 1 | 1018.0 |
| 20260510153015 | 57 | 245 | 0.0 | 1.0 | 0.00 | 0.00 | 0.00 | 1 | 1018.3 |
| 20260510152517 | 56 | 231 | 0.0 | 0.0 | 0.00 | 0.00 | 0.00 | 1 | 1018.3 |
| 20260510152015 | 56 | 226 | 0.0 | 1.0 | 0.00 | 0.00 | 0.00 | 1 | 1018.2 |
| 20260510151511 | 56 | 281 | 0.0 | 3.0 | 0.00 | 0.00 | 0.00 | 1 | 1018.4 |
| 20260510151009 | 55 | 224 | 0.0 | 3.0 | 0.00 | 0.00 | 0.00 | 1 | 1018.5 |
| 20260510150508 | 55 | 228 | 0.0 | 3.0 | 0.00 | 0.00 | 0.00 | 1 | 1018.3 |
| 20260510150006 | 55 | 240 | 0.0 | 0.0 | 0.00 | 0.00 | 0.00 | 1 | 1018.2 |
| 20260510145508 | 55 | 226 | 0.0 | 0.0 | 0.00 | 0.00 | 0.00 | 1 | 1018.2 |
| 20260510145003 | 54 | 223 | 0.0 | 0.0 | 0.00 | 0.00 | 0.00 | 1 | 1018.2 |
| 20260510144501 | 54 | 242 | 0.0 | 0.0 | 0.00 | 0.00 | 0.00 | 1 | 1018.2 |
| 20260510144047 | 54 | 239 | 0.0 | 0.0 | 0.00 | 0.00 | 0.00 | 1 | 1018.1 |
| 20260510143542 | 54 | 239 | 0.0 | 0.0 | 0.00 | 0.00 | 0.00 | 1 | 1018.0 |
| 20260510143050 | 54 | 253 | 0.0 | 0.0 | 0.00 | 0.00 | 0.00 | 1 | 1018.1 |
| 20260510142539 | 54 | 237 | 0.0 | 0.0 | 0.00 | 0.00 | 0.00 | 1 | 1017.9 |
| 20260510142038 | 54 | 229 | 0.0 | 0.0 | 0.00 | 0.00 | 0.00 | 1 | 1017.7 |
| 20260510141540 | 54 | 227 | 0.0 | 0.0 | 0.00 | 0.00 | 0.00 | 1 | 1017.7 |
| 20260510141018 | 54 | 243 | 0.0 | 0.0 | 0.00 | 0.00 | 0.00 | 1 | 1017.7 |
| 20260510140515 | 54 | 219 | 0.0 | 0.0 | 0.00 | 0.00 | 0.00 | 1 | 1017.9 |
| 20260510140015 | 54 | 239 | 0.0 | 0.0 | 0.00 | 0.00 | 0.00 | 1 | 1017.7 |
| 20260510135521 | 54 | 238 | 0.0 | 0.0 | 0.00 | 0.00 | 0.00 | 1 | 1017.9 |
| 20260510135011 | 54 | 211 | 0.0 | 0.0 | 0.00 | 0.00 | 0.00 | 1 | 1017.7 |
| 20260510134511 | 0 | 0.0 | 0.0 | 0.00 | 0.00 | 0.00 | 1017.8 | ||
| 20260510134056 | 0 | 0.0 | 0.0 | 0.00 | 0.00 | 0.00 | 1017.9 | ||
| 20260510133553 | 0 | 0.0 | 0.0 | 0.00 | 0.00 | 0.00 | 1017.9 | ||
| 20260510133053 | 0 | 0.0 | 0.0 | 0.00 | 0.00 | 0.00 | 1017.7 | ||
| 20260510132557 | 0 | 0.0 | 0.0 | 0.00 | 0.00 | 0.00 | 1017.5 | ||
| 20260510132052 | 0 | 0.0 | 0.0 | 0.00 | 0.00 | 0.00 | 1017.5 | ||
| 20260510131555 | 0 | 0.0 | 0.0 | 0.00 | 0.00 | 0.00 | 1017.8 | ||
| 20260510131037 | 0 | 0.0 | 0.0 | 0.00 | 0.00 | 0.00 | 1017.4 | ||
| 20260510130536 | 0 | 0.0 | 0.0 | 0.00 | 0.00 | 0.00 | 1017.3 | ||
| 20260510130037 | 0 | 0.0 | 0.0 | 0.00 | 0.00 | 0.00 | 1017.5 | ||
| 20260510125537 | 0 | 0.0 | 0.0 | 0.00 | 0.00 | 0.00 | 1017.5 | ||
| 20260510125035 | 0 | 0.0 | 0.0 | 0.00 | 0.00 | 0.00 | 1017.6 | ||
| 20260510124537 | 0 | 0.0 | 0.0 | 0.00 | 0.00 | 0.00 | 1017.5 | ||
| 20260510124022 | 0 | 0.0 | 0.0 | 0.00 | 0.00 | 0.00 | 1017.5 | ||
| 20260510123525 | 0 | 0.0 | 0.0 | 0.00 | 0.00 | 0.00 | 1017.8 | ||
| 20260510123023 | 0 | 0.0 | 0.0 | 0.00 | 0.00 | 0.00 | 1017.8 | ||
| 20260510122522 | 0 | 0.0 | 0.0 | 0.00 | 0.00 | 0.00 | 1017.6 | ||
| 20260510122022 | 0 | 0.0 | 0.0 | 0.00 | 0.00 | 0.00 | 1017.5 | ||
| 20260510121522 | 0 | 0.0 | 0.0 | 0.00 | 0.00 | 0.00 | 1017.6 | ||
| 20260510121024 | 0 | 0.0 | 0.0 | 0.00 | 0.00 | 0.00 | 1017.7 | ||
| 20260510120522 | 0 | 0.0 | 0.0 | 0.00 | 0.00 | 0.00 | 1017.5 | ||
| 20260510120021 | 0 | 0.0 | 0.0 | 0.00 | 0.00 | 0.00 | 1017.6 | ||
| 20260510115526 | 0 | 0.0 | 0.0 | 0.00 | 0.00 | 0.00 | 1017.7 | ||
| 20260510115025 | 0 | 0.0 | 0.0 | 0.00 | 0.00 | 0.00 | 1017.8 | ||
| 20260510114522 | 0 | 0.0 | 0.0 | 0.00 | 0.00 | 0.00 | 1017.5 | ||
| 20260510114020 | 0 | 0.0 | 0.0 | 0.00 | 0.00 | 0.00 | 1017.5 | ||
| 20260510113521 | 0 | 0.0 | 0.0 | 0.00 | 0.00 | 0.00 | 1017.7 | ||
| 20260510113021 | 0 | 0.0 | 0.0 | 0.00 | 0.00 | 0.00 | 1017.7 | ||
| 20260510112521 | 0 | 0.0 | 0.0 | 0.00 | 0.00 | 0.00 | 1017.8 | ||
| 20260510112021 | 0 | 0.0 | 0.0 | 0.00 | 0.00 | 0.00 | 1017.7 | ||
| 20260510111520 | 0 | 0.0 | 0.0 | 0.00 | 0.00 | 0.00 | 1017.6 | ||
| 20260510111024 | 0 | 0.0 | 0.0 | 0.00 | 0.00 | 0.00 | 1017.5 | ||
| 20260510110521 | 0 | 0.0 | 0.0 | 0.00 | 0.00 | 0.00 | 1017.5 | ||
| 20260510110021 | 0 | 0.0 | 0.0 | 0.00 | 0.00 | 0.00 | 1017.5 | ||
| 20260510105520 | 0 | 0.0 | 0.0 | 0.00 | 0.00 | 0.00 | 1017.4 | ||
| 20260510105020 | 0 | 0.0 | 0.0 | 0.00 | 0.00 | 0.00 | 1017.6 | ||
| 20260510104519 | 0 | 0.0 | 0.0 | 0.00 | 0.00 | 0.00 | 1017.7 | ||
| 20260510104001 | 0 | 0.0 | 0.0 | 0.00 | 0.00 | 0.00 | 1017.5 | ||
| 20260510103502 | 0 | 0.0 | 0.0 | 0.00 | 0.00 | 0.00 | 1017.5 | ||
| 20260510103001 | 0 | 0.0 | 0.0 | 0.00 | 0.00 | 0.00 | 1017.4 | ||
| 20260510102502 | 0 | 0.0 | 0.0 | 0.00 | 0.00 | 0.00 | 1017.5 | ||
| 20260510102101 | 0 | 0.0 | 0.0 | 0.00 | 0.00 | 0.00 | 1017.5 | ||
| 20260510102004 | 0 | 0.0 | 0.0 | 0.00 | 0.00 | 0.00 | 1017.6 | ||
| 20260510101600 | 0 | 0.0 | 0.0 | 0.00 | 0.00 | 0.00 | 1017.5 | ||
| 20260510101104 | 0 | 0.0 | 0.0 | 0.00 | 0.00 | 0.00 | 1017.4 | ||
| 20260510100543 | 0 | 0.0 | 0.0 | 0.00 | 0.00 | 0.00 | 1017.5 | ||
| 20260510100043 | 0 | 0.0 | 0.0 | 0.00 | 0.00 | 0.00 | 1017.6 | ||
| 20260510095544 | 0 | 0.0 | 0.0 | 0.00 | 0.00 | 0.00 | 1017.5 | ||
| 20260510095042 | 0 | 0.0 | 0.0 | 0.00 | 0.00 | 0.00 | 1017.4 | ||
| 20260510094542 | 0 | 0.0 | 0.0 | 0.00 | 0.00 | 0.00 | 1017.4 | ||
| 20260510094041 | 0 | 0.0 | 0.0 | 0.00 | 0.00 | 0.00 | 1017.4 | ||
| 20260510093523 | 0 | 0.0 | 0.0 | 0.00 | 0.00 | 0.00 | 1017.4 | ||
| 20260510093022 | 0 | 0.0 | 0.0 | 0.00 | 0.00 | 0.00 | 1017.4 | ||
| 20260510092519 | 0 | 0.0 | 0.0 | 0.00 | 0.00 | 0.00 | 1017.4 | ||
| 20260510092017 | 0 | 0.0 | 0.0 | 0.00 | 0.00 | 0.00 | 1017.4 | ||
| 20260510091516 | 0 | 0.0 | 0.0 | 0.00 | 0.00 | 0.00 | 1017.3 | ||
| 20260510091014 | 0 | 0.0 | 0.0 | 0.00 | 0.00 | 0.00 | 1017.3 | ||
| 20260510090556 | 0 | 0.0 | 0.0 | 0.00 | 0.00 | 0.00 | 1017.3 | ||
| 20260510090055 | 0 | 0.0 | 0.0 | 0.00 | 0.00 | 0.00 | 1017.4 | ||
| 20260510085553 | 0 | 0.0 | 0.0 | 0.00 | 0.00 | 0.00 | 1017.4 | ||
| 20260510085051 | 0 | 0.0 | 0.0 | 0.00 | 0.00 | 0.00 | 1017.5 | ||
| 20260510084553 | 0 | 0.0 | 0.0 | 0.00 | 0.00 | 0.00 | 1017.5 | ||
| 20260510084048 | 0 | 0.0 | 0.0 | 0.00 | 0.00 | 0.00 | 1017.5 | ||
| 20260510083534 | 0 | 0.0 | 0.0 | 0.00 | 0.00 | 0.00 | 1017.6 | ||
| 20260510083036 | 0 | 0.0 | 0.0 | 0.00 | 0.00 | 0.00 | 1017.7 | ||
| 20260510082526 | 0 | 0.0 | 0.0 | 0.00 | 0.00 | 0.00 | 1017.6 | ||
| 20260510082025 | 0 | 0.0 | 0.0 | 0.00 | 0.00 | 0.00 | 1017.5 | ||
| 20260510081537 | 0 | 0.0 | 0.0 | 0.00 | 0.00 | 0.00 | 1017.5 | ||
| 20260510081025 | 0 | 0.0 | 0.0 | 0.00 | 0.00 | 0.00 | 1017.4 | ||
| 20260510080504 | 0 | 0.0 | 0.0 | 0.00 | 0.00 | 0.00 | 1017.4 | ||
| 20260510080002 | 0 | 0.0 | 0.0 | 0.00 | 0.00 | 0.00 | 1017.3 | ||
| 20260510075600 | 0 | 0.0 | 0.0 | 0.00 | 0.00 | 0.00 | 1017.3 | ||
| 20260510075059 | 0 | 0.0 | 0.0 | 0.00 | 0.00 | 0.00 | 1017.1 | ||
| 20260510074558 | 0 | 0.0 | 0.0 | 0.00 | 0.00 | 0.00 | 1017.2 | ||
| 20260510074058 | 0 | 0.0 | 0.0 | 0.00 | 0.00 | 0.00 | 1017.2 | ||
| 20260510073538 | 0 | 0.0 | 0.0 | 0.00 | 0.00 | 0.00 | 1017.1 | ||
| 20260510073050 | 0 | 0.0 | 0.0 | 0.00 | 0.00 | 0.00 | 1017.1 | ||
| 20260510072536 | 0 | 0.0 | 0.0 | 0.00 | 0.00 | 0.00 | 1017.0 | ||
| 20260510072035 | 0 | 0.0 | 0.0 | 0.00 | 0.00 | 0.00 | 1016.9 | ||
| 20260510071534 | 0 | 0.0 | 0.0 | 0.00 | 0.00 | 0.00 | 1016.9 | ||
| 20260510071030 | 0 | 0.0 | 0.0 | 0.00 | 0.00 | 0.00 | 1016.9 | ||
| 20260510070513 | 0 | 0.0 | 0.0 | 0.00 | 0.00 | 0.00 | 1016.8 | ||
| 20260510070011 | 0 | 0.0 | 0.0 | 0.00 | 0.00 | 0.00 | 1016.9 | ||
| 20260510065509 | 0 | 0.0 | 0.0 | 0.00 | 0.00 | 0.00 | 1016.9 | ||
| 20260510065007 | 0 | 0.0 | 0.0 | 0.00 | 0.00 | 0.00 | 1016.9 | ||
| 20260510064506 | 52 | 271 | 0.0 | 1.0 | 0.00 | 0.00 | 0.00 | 1 | 1016.9 |
| 20260510064005 | 52 | 271 | 0.0 | 1.0 | 0.00 | 0.00 | 0.00 | 1 | 1016.9 |
| 20260510063546 | 52 | 271 | 0.0 | 1.0 | 0.00 | 0.00 | 0.00 | 1 | 1016.9 |
| 20260510063046 | 53 | 309 | 0.0 | 1.0 | 0.00 | 0.00 | 0.00 | 1 | 1016.9 |
| 20260510062542 | 53 | 300 | 0.0 | 4.0 | 0.00 | 0.00 | 0.00 | 1 | 1016.9 |
| 20260510062041 | 53 | 325 | 0.0 | 4.0 | 0.00 | 0.00 | 0.00 | 1 | 1017.0 |
| 20260510061545 | 53 | 308 | 0.0 | 3.0 | 0.00 | 0.00 | 0.00 | 1 | 1017.0 |
| 20260510061038 | 53 | 295 | 0.0 | 3.0 | 0.00 | 0.00 | 0.00 | 1 | 1017.0 |
| 20260510060520 | 53 | 217 | 0.0 | 3.0 | 0.00 | 0.00 | 0.00 | 1 | 1017.0 |
| 20260510060034 | 53 | 61 | 0.0 | 3.0 | 0.00 | 0.00 | 0.00 | 1 | 1016.9 |
| 20260510055516 | 53 | 22 | 0.0 | 2.0 | 0.00 | 0.00 | 0.00 | 1 | 1017.1 |
| 20260510055018 | 53 | 188 | 0.0 | 2.0 | 0.00 | 0.00 | 0.00 | 1 | 1017.1 |
| 20260510054516 | 53 | 300 | 0.0 | 2.0 | 0.00 | 0.00 | 0.00 | 1 | 1017.1 |
| 20260510054014 | 53 | 60 | 0.0 | 1.0 | 0.00 | 0.00 | 0.00 | 1 | 1017.0 |
| 20260510053547 | 53 | 50 | 0.0 | 1.0 | 0.00 | 0.00 | 0.00 | 1 | 1017.0 |
| 20260510053103 | 53 | 225 | 0.0 | 1.0 | 0.00 | 0.00 | 0.00 | 1 | 1017.0 |
| 20260510052544 | 53 | 252 | 0.0 | 1.0 | 0.00 | 0.00 | 0.00 | 1 | 1017.0 |
| 20260510052042 | 53 | 250 | 0.0 | 3.0 | 0.00 | 0.00 | 0.00 | 1 | 1017.0 |
| 20260510051545 | 53 | 89 | 0.0 | 1.0 | 0.00 | 0.00 | 0.00 | 1 | 1017.0 |
| 20260510051040 | 53 | 298 | 0.0 | 2.0 | 0.00 | 0.00 | 0.00 | 1 | 1016.9 |
| 20260510050520 | 54 | 218 | 0.0 | 2.0 | 0.00 | 0.00 | 0.00 | 1 | 1017.0 |
| 20260510050019 | 54 | 248 | 0.0 | 5.0 | 0.00 | 0.00 | 0.00 | 1 | 1017.0 |
| 20260510045518 | 54 | 49 | 1.0 | 5.0 | 0.00 | 0.00 | 0.00 | 1 | 1017.2 |
| 20260510045018 | 54 | 300 | 0.0 | 4.0 | 0.00 | 0.00 | 0.00 | 1 | 1017.1 |
| 20260510044533 | 54 | 231 | 0.0 | 1.0 | 0.00 | 0.00 | 0.00 | 1 | 1017.0 |
| 20260510044013 | 54 | 26 | 0.0 | 3.0 | 0.00 | 0.00 | 0.00 | 1 | 1016.9 |
| 20260510043612 | 54 | 236 | 0.0 | 3.0 | 0.00 | 0.00 | 0.00 | 1 | 1016.9 |
| 20260510043058 | 54 | 7 | 0.0 | 6.0 | 0.00 | 0.00 | 0.00 | 1 | 1016.8 |
| 20260510042551 | 54 | 26 | 1.0 | 6.0 | 0.00 | 0.00 | 0.00 | 1 | 1016.7 |
| 20260510042054 | 54 | 284 | 0.0 | 5.0 | 0.00 | 0.00 | 0.00 | 1 | 1016.8 |
| 20260510041548 | 54 | 337 | 0.0 | 4.0 | 0.00 | 0.00 | 0.00 | 1 | 1016.8 |
| 20260510041048 | 54 | 12 | 0.0 | 4.0 | 0.00 | 0.00 | 0.00 | 1 | 1016.7 |
| 20260510040546 | 54 | 309 | 0.0 | 2.0 | 0.00 | 0.00 | 0.00 | 1 | 1016.6 |
| 20260510040038 | 54 | 98 | 0.0 | 4.0 | 0.00 | 0.00 | 0.00 | 1 | 1016.5 |
| 20260510035524 | 55 | 150 | 0.0 | 4.0 | 0.00 | 0.00 | 0.00 | 1 | 1016.6 |
| 20260510035023 | 55 | 288 | 0.0 | 4.0 | 0.00 | 0.00 | 0.00 | 1 | 1016.5 |
| 20260510034521 | 55 | 238 | 0.0 | 2.0 | 0.00 | 0.00 | 0.00 | 1 | 1016.5 |
| 20260510034021 | 55 | 37 | 0.0 | 2.0 | 0.00 | 0.00 | 0.00 | 1 | 1016.5 |
| 20260510033518 | 55 | 290 | 0.0 | 3.0 | 0.00 | 0.00 | 0.00 | 1 | 1016.5 |
| 20260510033113 | 55 | 305 | 0.0 | 4.0 | 0.00 | 0.00 | 0.00 | 1 | 1016.6 |
| 20260510032602 | 56 | 187 | 0.0 | 4.0 | 0.00 | 0.00 | 0.00 | 1 | 1016.5 |
| 20260510032057 | 56 | 239 | 0.0 | 2.0 | 0.00 | 0.00 | 0.00 | 1 | 1016.6 |
| 20260510031556 | 56 | 228 | 0.0 | 2.0 | 0.00 | 0.00 | 0.00 | 1 | 1016.5 |
| 20260510031054 | 56 | 238 | 0.0 | 7.0 | 0.00 | 0.00 | 0.00 | 1 | 1016.5 |
| 20260510030552 | 57 | 255 | 1.0 | 7.0 | 0.00 | 0.00 | 0.00 | 1 | 1016.6 |
| 20260510030043 | 57 | 314 | 0.0 | 5.0 | 0.00 | 0.00 | 0.00 | 1 | 1016.5 |
| 20260510025533 | 57 | 259 | 0.0 | 3.0 | 0.00 | 0.00 | 0.00 | 1 | 1016.5 |
| 20260510025035 | 57 | 240 | 0.0 | 3.0 | 0.00 | 0.00 | 0.00 | 1 | 1016.4 |
| 20260510024532 | 57 | 294 | 0.0 | 3.0 | 0.00 | 0.00 | 0.00 | 1 | 1016.4 |
| 20260510024028 | 58 | 56 | 0.0 | 3.0 | 0.00 | 0.00 | 0.00 | 1 | 1016.3 |
| 20260510023527 | 58 | 58 | 0.0 | 5.0 | 0.00 | 0.00 | 0.00 | 1 | 1016.3 |
| 20260510023008 | 58 | 292 | 0.0 | 1.0 | 0.00 | 0.00 | 0.00 | 1 | 1016.3 |
| 20260510022506 | 58 | 248 | 0.0 | 3.0 | 0.00 | 0.00 | 0.00 | 1 | 1016.3 |
| 20260510022005 | 58 | 322 | 0.0 | 2.0 | 0.00 | 0.00 | 0.00 | 1 | 1016.3 |
| 20260510021503 | 58 | 257 | 0.0 | 3.0 | 0.00 | 0.00 | 0.00 | 1 | 1016.3 |
| 20260510021001 | 58 | 297 | 0.0 | 3.0 | 0.00 | 0.00 | 0.00 | 1 | 1016.3 |
| 20260510020600 | 58 | 333 | 0.0 | 3.0 | 0.00 | 0.00 | 0.00 | 1 | 1016.3 |
| 20260510020501 | 59 | 316 | 0.0 | 3.0 | 0.00 | 0.00 | 0.00 | 1 | 1016.4 |
| 20260510020041 | 59 | 94 | 0.0 | 3.0 | 0.00 | 0.00 | 0.00 | 1 | 1016.5 |
| 20260510015541 | 59 | 4 | 0.0 | 3.0 | 0.00 | 0.00 | 0.00 | 1 | 1016.4 |
| 20260510015038 | 59 | 269 | 0.0 | 1.0 | 0.00 | 0.00 | 0.00 | 1 | 1016.5 |
| 20260510014540 | 59 | 84 | 0.0 | 2.0 | 0.00 | 0.00 | 0.00 | 1 | 1016.6 |
| 20260510014038 | 60 | 271 | 0.0 | 3.0 | 0.00 | 0.00 | 0.00 | 1 | 1016.6 |
| 20260510013534 | 60 | 293 | 0.0 | 2.0 | 0.00 | 0.00 | 0.00 | 1 | 1016.6 |
| 20260510013016 | 60 | 276 | 0.0 | 1.0 | 0.00 | 0.00 | 0.00 | 1 | 1016.7 |
| 20260510012516 | 60 | 236 | 0.0 | 2.0 | 0.00 | 0.00 | 0.00 | 1 | 1016.8 |
| 20260510012012 | 60 | 281 | 0.0 | 3.0 | 0.00 | 0.00 | 0.00 | 1 | 1016.8 |
| 20260510011515 | 60 | 342 | 0.0 | 4.0 | 0.00 | 0.00 | 0.00 | 1 | 1016.8 |
| 20260510011010 | 60 | 35 | 0.0 | 4.0 | 0.00 | 0.00 | 0.00 | 1 | 1016.9 |
| 20260510010507 | 60 | 295 | 0.0 | 4.0 | 0.00 | 0.00 | 0.00 | 1 | 1017.0 |
| 20260510010049 | 61 | 38 | 1.0 | 4.0 | 0.00 | 0.00 | 0.00 | 1 | 1017.1 |
| 20260510005547 | 61 | 293 | 0.0 | 3.0 | 0.00 | 0.00 | 0.00 | 1 | 1017.2 |
| 20260510005046 | 61 | 263 | 0.0 | 5.0 | 0.00 | 0.00 | 0.00 | 1 | 1017.1 |
| 20260510004544 | 61 | 59 | 0.0 | 6.0 | 0.00 | 0.00 | 0.00 | 1 | 1017.2 |
| 20260510004042 | 61 | 84 | 0.0 | 6.0 | 0.00 | 0.00 | 0.00 | 1 | 1017.3 |
| 20260510003542 | 62 | 103 | 0.0 | 4.0 | 0.00 | 0.00 | 0.00 | 1 | 1017.3 |
| 20260510003025 | 62 | 60 | 0.0 | 3.0 | 0.00 | 0.00 | 0.00 | 1 | 1017.3 |
| 20260510002524 | 62 | 311 | 0.0 | 6.0 | 0.00 | 0.00 | 0.00 | 1 | 1017.2 |
| 20260510002025 | 62 | 221 | 0.0 | 6.0 | 0.00 | 0.00 | 0.00 | 1 | 1017.3 |
| 20260510001521 | 63 | 262 | 0.0 | 3.0 | 0.00 | 0.00 | 0.00 | 1 | 1017.4 |
| 20260510001020 | 63 | 277 | 0.0 | 3.0 | 0.00 | 0.00 | 0.00 | 1 | 1017.5 |
| 20260510000518 | 63 | 315 | 0.0 | 5.0 | 0.00 | 0.00 | 0.00 | 1 | 1017.4 |
| 20260510000019 | 63 | 309 | 0.0 | 5.0 | 0.00 | 0.00 | 0.00 | 1 | 1017.5 |
| 20260509235514 | 63 | 35 | 1.0 | 5.0 | 0.00 | 0.00 | 0.00 | 1 | 1017.4 |
| 20260509235015 | 63 | 53 | 1.0 | 5.0 | 0.00 | 0.00 | 0.00 | 1 | 1017.5 |
| 20260509234519 | 63 | 312 | 0.0 | 2.0 | 0.00 | 0.00 | 0.00 | 1 | 1017.5 |
| 20260509234014 | 63 | 295 | 0.0 | 3.0 | 0.00 | 0.00 | 0.00 | 1 | 1017.5 |
| 20260509233509 | 63 | 72 | 1.0 | 3.0 | 0.00 | 0.00 | 0.00 | 1 | 1017.6 |
| 20260509233009 | 63 | 67 | 0.0 | 4.0 | 0.00 | 0.00 | 0.00 | 1 | 1017.7 |
| 20260509232506 | 63 | 323 | 0.0 | 5.0 | 0.00 | 0.00 | 0.00 | 1 | 1018.0 |
| 20260509232005 | 63 | 56 | 0.0 | 5.0 | 0.00 | 0.00 | 0.00 | 1 | 1018.1 |
| 20260509231504 | 64 | 290 | 0.0 | 3.0 | 0.00 | 0.00 | 0.00 | 1 | 1018.1 |
| 20260509231002 | 64 | 297 | 0.0 | 2.0 | 0.00 | 0.00 | 0.00 | 1 | 1018.2 |
| 20260509230604 | 63 | 270 | 0.0 | 4.0 | 0.00 | 0.00 | 0.00 | 1 | 1018.3 |
| 20260509225600 | 64 | 84 | 0.0 | 3.0 | 0.00 | 0.00 | 0.00 | 1 | 1018.4 |
| 20260509225057 | 64 | 281 | 1.0 | 4.0 | 0.00 | 0.00 | 0.00 | 1 | 1018.6 |
| 20260509224556 | 64 | 339 | 0.0 | 4.0 | 0.00 | 0.00 | 0.00 | 1 | 1018.7 |
| 20260509224054 | 64 | 307 | 1.0 | 4.0 | 0.00 | 0.00 | 0.00 | 1 | 1018.6 |
| 20260509223553 | 64 | 259 | 0.0 | 3.0 | 0.00 | 0.00 | 0.00 | 1 | 1018.7 |
| 20260509223057 | 64 | 238 | 0.0 | 3.0 | 0.00 | 0.00 | 0.00 | 1 | 1018.7 |
| 20260509222549 | 64 | 44 | 0.0 | 4.0 | 0.00 | 0.00 | 0.00 | 1 | 1018.7 |
| 20260509222048 | 64 | 215 | 0.0 | 4.0 | 0.00 | 0.00 | 0.00 | 1 | 1018.8 |
| 20260509221548 | 63 | 264 | 1.0 | 4.0 | 0.00 | 0.00 | 0.00 | 1 | 1018.9 |
| 20260509221045 | 63 | 291 | 1.0 | 3.0 | 0.00 | 0.00 | 0.00 | 2 | 1018.8 |
| 20260509220546 | 64 | 208 | 0.0 | 4.0 | 0.00 | 0.00 | 0.00 | 1 | 1018.9 |
| 20260509220044 | 64 | 229 | 0.0 | 4.0 | 0.00 | 0.00 | 0.00 | 1 | 1019.0 |
| 20260509215542 | 65 | 250 | 0.0 | 3.0 | 0.00 | 0.00 | 0.00 | 1 | 1019.1 |
| 20260509215042 | 65 | 273 | 0.0 | 5.0 | 0.00 | 0.00 | 0.00 | 1 | 1019.0 |
| 20260509214539 | 64 | 222 | 0.0 | 5.0 | 0.00 | 0.00 | 0.00 | 3 | 1018.9 |
| 20260509214039 | 64 | 108 | 1.0 | 5.0 | 0.00 | 0.00 | 0.00 | 13 | 1019.0 |
| 20260509213536 | 64 | 101 | 0.0 | 5.0 | 0.00 | 0.00 | 0.00 | 11 | 1019.1 |
| 20260509213035 | 65 | 307 | 1.0 | 5.0 | 0.00 | 0.00 | 0.00 | 9 | 1019.2 |
| 20260509212536 | 66 | 185 | 0.0 | 2.0 | 0.00 | 0.00 | 0.00 | 1 | 1019.3 |
| 20260509212034 | 65 | 257 | 0.0 | 4.0 | 0.00 | 0.00 | 0.00 | 1 | 1019.4 |
| 20260509211529 | 65 | 245 | 1.0 | 4.0 | 0.00 | 0.00 | 0.00 | 6 | 1019.3 |
| 20260509211028 | 65 | 229 | 0.0 | 3.0 | 0.00 | 0.00 | 0.00 | 14 | 1019.2 |
| 20260509210527 | 66 | 278 | 0.0 | 2.0 | 0.00 | 0.00 | 0.00 | 1 | 1019.3 |
| 20260509210015 | 65 | 61 | 0.0 | 3.0 | 0.00 | 0.00 | 0.00 | 4 | 1019.3 |
| 20260509205505 | 65 | 228 | 0.0 | 5.0 | 0.00 | 0.00 | 0.00 | 1 | 1019.4 |
| 20260509205005 | 65 | 236 | 1.0 | 5.0 | 0.00 | 0.00 | 0.00 | 4 | 1019.5 |
| 20260509204502 | 64 | 217 | 2.0 | 4.0 | 0.00 | 0.00 | 0.00 | 6 | 1019.5 |
| 20260509204001 | 65 | 84 | 0.0 | 3.0 | 0.00 | 0.00 | 0.00 | 6 | 1019.5 |
| 20260509203559 | 66 | 336 | 0.0 | 3.0 | 0.00 | 0.00 | 0.00 | 1 | 1019.6 |
| 20260509203111 | 65 | 262 | 0.0 | 3.0 | 0.00 | 0.00 | 0.00 | 1 | 1019.6 |
| 20260509202539 | 64 | 243 | 1.0 | 6.0 | 0.00 | 0.00 | 0.00 | 9 | 1019.7 |
| 20260509202041 | 65 | 271 | 1.0 | 6.0 | 0.00 | 0.00 | 0.00 | 1 | 1019.8 |
| 20260509201537 | 65 | 244 | 1.0 | 5.0 | 0.00 | 0.00 | 0.00 | 1 | 1020.1 |
| 20260509201034 | 65 | 198 | 1.0 | 5.0 | 0.00 | 0.00 | 0.00 | 2 | 1020.0 |
| 20260509200535 | 66 | 338 | 0.0 | 2.0 | 0.00 | 0.00 | 0.00 | 1 | 1020.1 |
| 20260509200031 | 65 | 235 | 0.0 | 3.0 | 0.00 | 0.00 | 0.00 | 1 | 1020.1 |
| 20260509195516 | 65 | 228 | 1.0 | 3.0 | 0.00 | 0.00 | 0.00 | 1 | 1020.0 |
| 20260509195011 | 65 | 283 | 0.0 | 5.0 | 0.00 | 0.00 | 0.00 | 1 | 1020.0 |
| 20260509194511 | 64 | 219 | 1.0 | 5.0 | 0.00 | 0.00 | 0.00 | 1 | 1020.0 |
| 20260509194009 | 64 | 72 | 1.0 | 3.0 | 0.00 | 0.00 | 0.00 | 1 | 1020.1 |
| 20260509193508 | 64 | 70 | 0.0 | 4.0 | 0.00 | 0.00 | 0.00 | 1 | 1020.1 |
| 20260509193005 | 64 | 235 | 0.0 | 2.0 | 0.00 | 0.00 | 0.00 | 1 | 1020.1 |
| 20260509192548 | 64 | 8 | 0.0 | 2.0 | 0.00 | 0.00 | 0.00 | 1 | 1020.2 |
| 20260509192045 | 63 | 19 | 0.0 | 3.0 | 0.00 | 0.00 | 0.00 | 1 | 1020.2 |
| 20260509191542 | 63 | 245 | 0.0 | 4.0 | 0.00 | 0.00 | 0.00 | 1 | 1020.3 |
| 20260509191042 | 64 | 228 | 3.0 | 4.0 | 0.00 | 0.00 | 0.00 | 1 | 1020.4 |
| 20260509190543 | 64 | 68 | 1.0 | 3.0 | 0.00 | 0.00 | 0.00 | 1 | 1020.4 |
| 20260509190038 | 64 | 247 | 1.0 | 3.0 | 0.00 | 0.00 | 0.00 | 1 | 1020.5 |